Regional Weather Roundup
Issued by NWS

Home | Current Version | Previous Version | Text Only | Print | Product List | Glossary On
Versions: 1 2 3 4 5 6 7 8 9 10 11 12 13 14 15 16 17 18 19 20 21 22 23 24 25 26 27 28 29 30 31 32 33 34 35 36 37 38 39 40 41 42 43 44 45 46 47 48 49 50
000
ASUS43 KOAX 260602
RWRNE

WEATHER ROUNDUP FOR NEBRASKA
NATIONAL WEATHER SERVICE OMAHA NE
100 AM CDT TUE JUL 26 2016

NOTES: SATELLITE DATA IS BEING USED TO AUGMENT CLOUD COVER ABOVE
       12000 FEET.
       "FAIR" INDICATES FEW OR NO CLOUDS BELOW 12,000 FEET WITH NO
       SIGNIFICANT WEATHER AND/OR OBSTRUCTIONS TO VISIBILITY.

  * THESE STATIONS DO NOT REPORT WEATHER SUCH AS RAIN...SNOW OR FOG.

NEZ001>004-019>022-054>056-260700-
NEBRASKA PANHANDLE

CITY           SKY/WX    TMP DP  RH WIND       PRES   REMARKS
SCOTTSBLUFF    CLEAR     70  62  76 E10       30.11R
6HR MIN TEMP:  70; 6HR MAX TEMP:  93;

ALLIANCE       CLEAR     70  62  76 S10       30.11R
6HR MIN TEMP:  70; 6HR MAX TEMP:  86;

CHADRON        CLEAR     78  60  53 S23G29    30.04R
6HR MIN TEMP:  78; 6HR MAX TEMP:  93;

KIMBALL        CLEAR     68  63  82 S16G22    30.18S
SIDNEY         CLEAR     70  61  73 S14       30.17S
6HR MIN TEMP:  70; 6HR MAX TEMP:  87;

$$

NEZ057>060-069>072-079>082-260700-
SOUTHWEST NEBRASKA

CITY           SKY/WX    TMP DP  RH WIND       PRES   REMARKS
NORTH PLATTE   CLEAR     72  64  76 SE8       30.11F
6HR MIN TEMP:  70; 6HR MAX TEMP:  84;

IMPERIAL       PTCLDY    69  63  81 SE8       30.14S
6HR MIN TEMP:  69; 6HR MAX TEMP:  87;

LEXINGTON      CLEAR     71  64  81 SE9       30.13F
MCCOOK         CLOUDY    72  64  76 SE8       30.12F
6HR MIN TEMP:  72; 6HR MAX TEMP:  88;

OGALLALA       CLEAR     72  63  73 CALM      30.12F
$$

NEZ005>010-023>029-035>040-094-260700-
NORTH CENTRAL NEBRASKA

CITY           SKY/WX    TMP DP  RH WIND       PRES   REMARKS
VALENTINE      CLEAR     73  63  70 S12       30.09R
6HR MIN TEMP:  73; 6HR MAX TEMP:  88;

AINSWORTH      CLEAR     71  63  77 S12       30.11S
BROKEN BOW     CLEAR     68  64  87 SE6       30.13F
6HR MIN TEMP:  68; 6HR MAX TEMP:  83;

O`NEILL        CLEAR     69  62  79 S7        30.12R
ORD            CLEAR     72  60  66 SE8       30.11S
6HR MIN TEMP:  67; 6HR MAX TEMP:  85;

THEDFORD       CLEAR     72  67  86 SE8       30.14R
$$

NEZ041-046>049-061>064-073>077-083>087-260700-
SOUTH CENTRAL NEBRASKA

CITY           SKY/WX    TMP DP  RH WIND       PRES   REMARKS
GRAND ISLAND   CLEAR     70  62  76 S7        30.14R
6HR MIN TEMP:  70; 6HR MAX TEMP:  84;

AURORA         CLEAR     66  64  91 SE3       30.13S
HASTINGS       CLEAR     72  61  68 SE9       30.15R
6HR MIN TEMP:  72; 6HR MAX TEMP:  84;

HEBRON         CLEAR     64  60  89 CALM      30.12S
HOLDREGE       CLEAR     66  60  80 SE8       30.14S
KEARNEY *      CLEAR     66  61  82 SE6       30.15S
YORK           CLEAR     68  64  88 CALM      30.13S
$$

NEZ011>018-030>034-042>045-260700-
NORTHEAST NEBRASKA

CITY           SKY/WX    TMP DP  RH WIND       PRES   REMARKS
NORFOLK        CLEAR     69  62  78 S9        30.11S
6HR MIN TEMP:  68; 6HR MAX TEMP:  84;

ALBION         CLEAR     66  61  84 CALM      30.13S
BLAIR          CLEAR     72  66  80 CALM      30.10S
FREMONT        CLEAR     70  64  82 CALM      30.11S
TEKAMAH        CLEAR     66  64  93 CALM      30.09S
6HR MIN TEMP:  66; 6HR MAX TEMP:  86;

WAYNE          CLEAR     64  63  95 SW5       30.12R
$$

NEZ050>053-065>068-078-088>093-260700-
SOUTHEAST NEBRASKA

CITY           SKY/WX    TMP DP  RH WIND       PRES   REMARKS
LINCOLN        CLEAR     67  63  87 N5        30.11R
6HR MIN TEMP:  67; 6HR MAX TEMP:  86;

OMAHA EPPLEY   CLEAR     73  66  78 CALM      30.09R
6HR MIN TEMP:  73; 6HR MAX TEMP:  86;

BEATRICE       CLEAR     65  63  91 CALM      30.11R
FALLS CITY     CLEAR     72  67  84 CALM      30.07R
6HR MIN TEMP:  71; 6HR MAX TEMP:  84;

NEBRASKA CITY  CLEAR     73  65  76 CALM      30.10R
PLATTSMOUTH    CLEAR     72  66  82 CALM      30.10S
$$

NEZ044-045-051>053-067-260700-
OMAHA AREA

CITY           SKY/WX    TMP DP  RH WIND       PRES   REMARKS
OMAHA EPPLEY   CLEAR     73  66  78 CALM      30.09R
6HR MIN TEMP:  73; 6HR MAX TEMP:  86;

BLAIR          CLEAR     72  66  80 CALM      30.10S
FREMONT        CLEAR     70  64  82 CALM      30.11S
MILLARD        CLEAR     71  68  91 CALM      30.09S
OFFUTT AFB     CLEAR     66  66  98 MISG      30.09R
PLATTSMOUTH    CLEAR     72  66  82 CALM      30.10S
WAHOO          FAIR      67  65  93 CALM      30.11R
$$




USA.gov is the U.S. government's official web portal to all federal, state and local government web resources and services.